Weather History for KLBL - May, 2013

Change the Weather History Date:

Friday, May 3, 2013

  Actual Average Record
Temperature  
Mean Temperature 45 °F -  
Max Temperature 64 °F 72 °F 96 °F (1950)
Min Temperature 26 °F 45 °F 26 °F (2013)
Degree Days  
Heating Degree Days 20    
Moisture  
Dew Point 22 °F    
Average Humidity 42    
Maximum Humidity 69    
Minimum Humidity 20    
Precipitation  
Precipitation 0.00 in - - ()
Sea Level Pressure  
Sea Level Pressure 30.24 in    
Wind  
Wind Speed 10 mph (NNW)    
Max Wind Speed 21 mph    
Max Gust Speed 29 mph    
Visibility 10 miles    
Events      
Averages and records for this station are not official NWS values.
T = Trace of Precipitation, MM = Missing Value Source: NWS Daily Summary

Daily Weather History Graph

Daily Weather History Graph

Search for Another Location

Airport or City:

Trip Planner

Search our weather history database for the weather conditions in past years. The results will help you decide how hot, cold, wet, or windy it might be!

Date:

Astronomy

May. 03, 2013 Rise Set
Actual Time 6:46 AM CDT 8:34 PM CDT
Civil Twilight 6:18 AM CDT 9:03 PM CDT
Nautical Twilight 5:44 AM CDT 9:37 PM CDT
Astronomical Twilight 5:08 AM CDT 10:13 PM CDT
Moon 3:03 AM CDT (5/3) 2:39 PM CDT (5/3)
Length of Visible Light 14h 44m
Length of Day
13h 48m
Last Quarter, 37% of the Moon is Illuminated
May 3
Last Quarter
May 9
New
May 17
First Quarter
May 24
Full
May 31
Last Quarter

Hourly Weather History & Observations

Time (CDT) Temp. Windchill Dew Point Humidity Pressure Visibility Wind Dir Wind Speed Gust Speed Precip Events Conditions
12:15 AM 30.2 °F 24.3 °F 17.6 °F 60% 30.47 in 10.0 mi WNW 5.8 mph - N/A   Clear
12:35 AM 30.2 °F 24.3 °F 17.6 °F 60% 30.47 in 10.0 mi NW 5.8 mph - N/A   Clear
12:55 AM 30.2 °F 21.9 °F 17.6 °F 60% 30.46 in 10.0 mi WNW 9.2 mph - N/A   Clear
1:15 AM 28.4 °F 19.7 °F 17.6 °F 64% 30.46 in 10.0 mi WNW 9.2 mph - N/A   Clear
1:35 AM 28.4 °F 19.7 °F 19.4 °F 69% 30.45 in 10.0 mi WNW 9.2 mph - N/A   Clear
1:55 AM 28.4 °F 19.7 °F 19.4 °F 69% 30.44 in 10.0 mi West 9.2 mph - N/A   Clear
2:15 AM 28.4 °F 19.1 °F 19.4 °F 69% 30.43 in 10.0 mi West 10.4 mph - N/A   Clear
2:35 AM 28.4 °F 18.5 °F 19.4 °F 69% 30.42 in 10.0 mi West 11.5 mph - N/A   Clear
2:55 AM 28.4 °F 19.1 °F 19.4 °F 69% 30.41 in 10.0 mi West 10.4 mph - N/A   Clear
3:15 AM 28.4 °F 19.7 °F 19.4 °F 69% 30.40 in 10.0 mi WNW 9.2 mph - N/A   Clear
3:35 AM 28.4 °F 19.7 °F 19.4 °F 69% 30.40 in 10.0 mi WNW 9.2 mph - N/A   Clear
3:55 AM 28.4 °F 19.1 °F 19.4 °F 69% 30.39 in 10.0 mi West 10.4 mph - N/A   Clear
4:15 AM 28.4 °F 19.7 °F 19.4 °F 69% 30.39 in 10.0 mi WNW 9.2 mph - N/A   Clear
4:35 AM 28.4 °F 19.1 °F 19.4 °F 69% 30.38 in 10.0 mi West 10.4 mph - N/A   Clear
4:55 AM 26.6 °F 16.8 °F 17.6 °F 69% 30.38 in 10.0 mi West 10.4 mph - N/A   Clear
5:15 AM 28.4 °F 19.1 °F 19.4 °F 69% 30.37 in 10.0 mi WNW 10.4 mph - N/A   Clear
5:35 AM 28.4 °F 19.1 °F 19.4 °F 69% 30.37 in 10.0 mi WNW 10.4 mph - N/A   Clear
5:55 AM 28.4 °F 18.5 °F 19.4 °F 69% 30.36 in 10.0 mi WNW 11.5 mph - N/A   Clear
6:15 AM 28.4 °F 19.7 °F 19.4 °F 69% 30.36 in 10.0 mi WNW 9.2 mph - N/A   Clear
6:35 AM 28.4 °F 20.4 °F 19.4 °F 69% 30.36 in 10.0 mi WNW 8.1 mph - N/A   Clear
6:55 AM 28.4 °F 19.7 °F 19.4 °F 69% 30.35 in 10.0 mi WNW 9.2 mph - N/A   Clear
7:15 AM 28.4 °F 19.7 °F 19.4 °F 69% 30.35 in 10.0 mi WNW 9.2 mph - N/A   Clear
7:35 AM 30.2 °F 21.3 °F 19.4 °F 64% 30.35 in 10.0 mi WNW 10.4 mph - N/A   Clear
7:55 AM 33.8 °F 26.4 °F 21.2 °F 60% 30.34 in 10.0 mi West 9.2 mph - N/A   Clear
8:35 AM 39.2 °F 32.5 °F 26.6 °F 61% 30.33 in 10.0 mi West 10.4 mph - N/A   Clear
8:55 AM 42.8 °F 37.0 °F 28.4 °F 57% 30.32 in 10.0 mi West 10.4 mph - N/A   Clear
9:15 AM 46.4 °F 40.7 °F 28.4 °F 50% 30.32 in 10.0 mi West 12.7 mph - N/A   Clear
9:35 AM 48.2 °F - 30.2 °F 50% 30.31 in 10.0 mi WNW 15.0 mph - N/A   Clear
9:55 AM 50.0 °F - 28.4 °F 43% 30.30 in 10.0 mi WNW 12.7 mph - N/A   Clear
10:15 AM 50.0 °F - 26.6 °F 40% 30.30 in 10.0 mi NW 10.4 mph - N/A   Clear
10:35 AM 51.8 °F - 24.8 °F 35% 30.29 in 10.0 mi NW 10.4 mph - N/A   Clear
10:55 AM 51.8 °F - 23.0 °F 33% 30.28 in 10.0 mi NNW 11.5 mph - N/A   Clear
11:15 AM 53.6 °F - 23.0 °F 30% 30.27 in 10.0 mi NNW 12.7 mph - N/A   Clear
11:35 AM 53.6 °F - 24.8 °F 33% 30.26 in 10.0 mi North 18.4 mph 23.0 mph N/A   Clear
11:55 AM 55.4 °F - 24.8 °F 31% 30.25 in 10.0 mi NNW 11.5 mph 19.6 mph N/A   Clear
12:15 PM 55.4 °F - 24.8 °F 31% 30.25 in 10.0 mi NNW 13.8 mph 19.6 mph N/A   Clear
12:35 PM 57.2 °F - 24.8 °F 29% 30.23 in 10.0 mi NNW 12.7 mph 21.9 mph N/A   Clear
12:55 PM 57.2 °F - 23.0 °F 27% 30.21 in 10.0 mi NW 13.8 mph 21.9 mph N/A   Clear
1:15 PM 59.0 °F - 24.8 °F 27% 30.20 in 10.0 mi NNW 10.4 mph 26.5 mph N/A   Clear
1:35 PM 60.8 °F - 24.8 °F 25% 30.18 in 10.0 mi NNW 17.3 mph 23.0 mph N/A   Clear
1:55 PM 60.8 °F - 23.0 °F 23% 30.17 in 10.0 mi North 13.8 mph 21.9 mph N/A   Clear
2:15 PM 60.8 °F - 23.0 °F 23% 30.17 in 10.0 mi North 20.7 mph 28.8 mph N/A   Clear
2:35 PM 60.8 °F - 23.0 °F 23% 30.16 in 10.0 mi NNW 16.1 mph 23.0 mph N/A   Clear
2:55 PM 60.8 °F - 23.0 °F 23% 30.14 in 10.0 mi North 16.1 mph 20.7 mph N/A   Clear
3:15 PM 62.6 °F - 24.8 °F 24% 30.14 in 10.0 mi NNW 16.1 mph 24.2 mph N/A   Clear
3:35 PM 62.6 °F - 23.0 °F 22% 30.12 in 10.0 mi North 20.7 mph 24.2 mph N/A   Clear
3:55 PM 62.6 °F - 23.0 °F 22% 30.11 in 10.0 mi North 13.8 mph 23.0 mph N/A   Clear
4:15 PM 62.6 °F - 24.8 °F 24% 30.10 in 10.0 mi NNE 11.5 mph 19.6 mph N/A   Clear
4:35 PM 64.4 °F - 24.8 °F 22% 30.09 in 10.0 mi North 15.0 mph 21.9 mph N/A   Clear
4:55 PM 62.6 °F - 23.0 °F 22% 30.08 in 10.0 mi North 17.3 mph 24.2 mph N/A   Clear
5:15 PM 62.6 °F - 21.2 °F 20% 30.08 in 10.0 mi North 16.1 mph 23.0 mph N/A   Clear
5:35 PM 64.4 °F - 23.0 °F 21% 30.07 in 10.0 mi North 16.1 mph - N/A   Clear
5:55 PM 62.6 °F - 23.0 °F 22% 30.07 in 10.0 mi NNE 15.0 mph 18.4 mph N/A   Clear
6:15 PM 62.6 °F - 23.0 °F 22% 30.06 in 10.0 mi North 15.0 mph 19.6 mph N/A   Clear
6:35 PM 62.6 °F - 23.0 °F 22% 30.06 in 10.0 mi NE 15.0 mph 19.6 mph N/A   Clear
6:55 PM 62.6 °F - 23.0 °F 22% 30.06 in 10.0 mi North 16.1 mph 20.7 mph N/A   Clear
7:15 PM 60.8 °F - 21.2 °F 22% 30.06 in 10.0 mi NNE 16.1 mph - N/A   Clear
7:35 PM 60.8 °F - 21.2 °F 22% 30.06 in 10.0 mi NE 12.7 mph - N/A   Clear
7:55 PM 59.0 °F - 21.2 °F 23% 30.06 in 10.0 mi NE 15.0 mph - N/A   Clear
8:15 PM 57.2 °F - 21.2 °F 25% 30.06 in 10.0 mi NE 10.4 mph - N/A   Clear
8:35 PM 55.4 °F - 19.4 °F 25% 30.07 in 10.0 mi NE 11.5 mph - N/A   Clear
8:55 PM 55.4 °F - 19.4 °F 25% 30.07 in 10.0 mi NE 12.7 mph - N/A   Clear
9:15 PM 53.6 °F - 19.4 °F 26% 30.08 in 10.0 mi ENE 8.1 mph - N/A   Clear
9:35 PM 51.8 °F - 19.4 °F 28% 30.08 in 10.0 mi NE 11.5 mph - N/A   Clear
9:55 PM 51.8 °F - 19.4 °F 28% 30.09 in 10.0 mi ENE 6.9 mph - N/A   Clear
10:15 PM 50.0 °F - 19.4 °F 30% 30.09 in 10.0 mi ENE 9.2 mph - N/A   Clear
10:35 PM 48.2 °F - 19.4 °F 32% 30.09 in 10.0 mi NE 5.8 mph - N/A   Clear
10:55 PM 48.2 °F - 19.4 °F 32% 30.10 in 10.0 mi NE 3.5 mph - N/A   Clear
11:15 PM 39.2 °F 37.0 °F 15.8 °F 39% 30.10 in 10.0 mi WNW 3.5 mph - N/A   Clear
11:35 PM 39.2 °F 37.0 °F 19.4 °F 45% 30.09 in 10.0 mi WNW 3.5 mph - N/A   Clear
11:55 PM 39.2 °F 35.9 °F 19.4 °F 45% 30.08 in 10.0 mi NNE 4.6 mph - N/A   Clear